FW5243 Weather Reports


Display with metric or nautical units.
time (UTC)temp
F
wind
direction
speed
MPH
gust
MPH
rain 1hr
in
rain 24hr
in
rain mn
in
humidity
%
barometer
mb
20260903044558 64 119 0.0 0.0 0.07 0.67 0.07 100 1018.7
20260903043055 64 115 0.0 0.0 0.05 0.65 0.05 100 1019.7
20260903041553 64 142 0.0 0.0 0.00 0.60 0.00 100 1019.9
20260903040050 64 250 0.0 1.0 0.00 0.60 0.00 100 1019.4
20260903034552 64 209 0.0 3.0 0.02 0.60 0.60 100 1018.7
20260903033048 64 171 0.0 1.0 0.27 0.60 0.60 100 1019.4
20260903031612 64 206 0.0 3.0 0.47 0.60 0.60 100 1019.1
20260903030053 65 190 1.0 4.0 0.59 0.60 0.60 100 1019.5
20260903024544 66 132 1.0 9.0 0.56 0.57 0.57 100 1020.1
20260903023038 68 130 3.0 8.0 0.31 0.32 0.32 100 1021.7
20260903021536 68 119 0.0 6.0 0.11 0.12 0.12 100 1019.6
20260903020034 68 217 1.0 5.0 0.00 0.01 0.01 100 1019.3
20260903014548 68 219 1.0 8.0 0.00 0.01 0.01 100 1018.7
20260903013035 68 126 1.0 7.0 0.00 0.01 0.01 100 1018.9
20260903011533 68 205 2.0 6.0 0.00 0.01 0.01 100 1019.1
20260903010030 68 145 0.0 5.0 0.00 0.01 0.01 100 1019.1
20260903004541 68 190 3.0 7.0 0.00 0.01 0.01 100 1017.8
20260903003038 69 136 0.0 4.0 0.00 0.01 0.01 100 1018.0
20260903001528 69 167 1.0 4.0 0.00 0.01 0.01 100 1018.6
20260903000031 69 124 0.0 5.0 0.00 0.01 0.01 100 1018.5
20260902234528 69 171 0.0 5.0 0.00 0.01 0.01 100 1018.3
20260902233027 69 153 0.0 7.0 0.00 0.01 0.01 100 1018.3
20260902231527 70 175 1.0 8.0 0.00 0.01 0.01 100 1017.9
20260902230026 70 175 1.0 8.0 0.00 0.01 0.01 100 1017.9
20260902224525 71 142 1.0 7.0 0.00 0.01 0.01 100 1018.0
20260902223031 71 136 1.0 8.0 0.00 0.01 0.01 100 1018.1
20260902221525 72 151 2.0 7.0 0.00 0.01 0.01 100 1018.1
20260902220021 72 145 3.0 8.0 0.00 0.01 0.01 100 1018.4
20260902214525 72 170 1.0 7.0 0.00 0.01 0.01 100 1018.4
20260902213021 72 138 0.0 6.0 0.00 0.01 0.01 100 1018.6
20260902211506 72 192 2.0 6.0 0.00 0.01 0.01 100 1018.6
20260902204559 71 153 1.0 7.0 0.00 0.01 0.01 100 1018.4
20260902203107 70 182 1.0 5.0 0.00 0.01 0.01 100 1018.7
20260902201554 70 151 2.0 10.0 0.00 0.01 0.01 100 1018.8
20260902200057 70 194 1.0 5.0 0.00 0.01 0.01 100 1019.5
20260902194552 70 192 1.0 7.0 0.00 0.01 0.01 100 1019.5
20260902193055 70 196 1.0 7.0 0.00 0.01 0.01 100 1019.6
20260902191555 70 119 1.0 4.0 0.00 0.01 0.01 100 1019.5
20260902190052 70 182 2.0 6.0 0.00 0.01 0.01 100 1019.6
20260902184559 69 178 1.0 6.0 0.00 0.01 0.01 100 1019.5
20260902183101 70 166 1.0 5.0 0.00 0.01 0.01 100 1019.6
20260902181550 69 162 1.0 7.0 0.00 0.01 0.01 100 1019.7
20260902180049 69 95 1.0 8.0 0.00 0.01 0.01 100 1020.0
20260902174548 70 184 2.0 6.0 0.00 0.01 0.01 100 1020.1
20260902173049 70 210 3.0 8.0 0.00 0.01 0.01 100 1020.2
20260902171549 69 174 2.0 7.0 0.00 0.01 0.01 100 1020.3
20260902170048 69 180 2.0 8.0 0.00 0.01 0.01 100 1020.2
20260902164546 70 184 2.0 6.0 0.00 0.01 0.01 100 1020.3
20260902163100 70 133 2.0 8.0 0.00 0.01 0.01 100 1020.0
20260902161547 70 148 1.0 9.0 0.00 0.01 0.01 100 1020.0
20260902160047 70 174 2.0 8.0 0.01 0.01 0.01 100 1020.0
20260902154544 70 212 2.0 8.0 0.01 0.01 0.01 100 1020.3
20260902153044 70 173 1.0 7.0 0.01 0.01 0.01 100 1020.2
20260902151551 70 202 2.0 9.0 0.01 0.01 0.01 100 1020.3
20260902150045 70 190 1.0 6.0 0.00 0.00 0.00 100 1020.0
20260902144544 70 146 1.0 7.0 0.00 0.00 0.00 100 1020.0
20260902143039 70 144 1.0 8.0 0.00 0.00 0.00 100 1020.0
20260902141540 70 188 0.0 4.0 0.00 0.00 0.00 100 1020.6
20260902140039 70 175 0.0 4.0 0.00 0.00 0.00 100 1020.7
20260902134536 70 158 1.0 4.0 0.00 0.00 0.00 100 1020.4
20260902133035 70 201 1.0 5.0 0.00 0.00 0.00 100 1020.4
20260902131534 70 159 1.0 5.0 0.00 0.00 0.00 100 1020.2
20260902130033 70 194 2.0 6.0 0.00 0.00 0.00 100 1020.3
20260902124531 70 148 0.0 7.0 0.00 0.04 0.00 100 1019.8
20260902123034 69 172 0.0 6.0 0.00 0.04 0.00 100 1019.6
20260902121530 69 152 0.0 4.0 0.00 0.04 0.00 100 1019.1
20260902120029 69 163 0.0 5.0 0.00 0.04 0.00 100 1019.2
20260902114529 69 131 0.0 5.0 0.00 0.04 0.00 100 1019.0
20260902113026 69 146 0.0 4.0 0.00 0.04 0.00 100 1019.4
20260902111535 69 182 0.0 5.0 0.00 0.04 0.00 100 1019.2
20260902110026 69 120 0.0 4.0 0.00 0.04 0.00 100 1019.3
20260902104525 68 136 0.0 4.0 0.00 0.04 0.00 100 1019.4
20260902103024 68 170 0.0 0.0 0.00 0.04 0.00 100 1019.4
20260902101523 68 200 0.0 0.0 0.00 0.04 0.00 100 1019.3
20260902100022 68 194 0.0 0.0 0.00 0.04 0.00 100 1019.3
20260902094520 68 163 0.0 0.0 0.00 0.05 0.00 100 1019.2
20260902093022 68 150 0.0 0.0 0.00 0.05 0.00 100 1019.1
20260902091520 68 150 0.0 0.0 0.00 0.05 0.00 100 1019.1
20260902090020 68 188 0.0 0.0 0.00 0.05 0.00 100 1019.0
20260902084521 68 188 0.0 0.0 0.00 0.05 0.00 100 1019.1
20260902083017 68 188 0.0 0.0 0.00 0.05 0.00 100 1019.1
20260902081516 68 180 0.0 0.0 0.00 0.05 0.00 100 1018.9
20260902080016 68 148 0.0 0.0 0.00 0.05 0.00 100 1018.8
20260902074512 69 148 0.0 0.0 0.00 0.05 0.00 100 1018.8
20260902073011 69 142 0.0 0.0 0.00 0.05 0.00 100 1018.8
20260902071517 70 142 0.0 0.0 0.00 0.05 0.00 100 1019.0
20260902070010 70 126 0.0 0.0 0.00 0.05 0.00 100 1018.9
20260902064509 70 124 0.0 0.0 0.00 0.05 0.00 100 1019.0
20260902063007 70 124 0.0 0.0 0.00 0.05 0.00 100 1019.1
20260902061507 70 125 0.0 0.0 0.00 0.05 0.00 100 1019.0
20260902060007 70 124 0.0 0.0 0.00 0.05 0.00 100 1019.2
20260902054506 70 124 0.0 0.0 0.00 0.05 0.00 100 1019.2
20260902053005 70 124 0.0 0.0 0.00 0.05 0.00 100 1019.0
20260902051503 70 124 0.0 0.0 0.00 0.05 0.00 100 1019.1
20260902050001 71 124 0.0 0.0 0.00 0.05 0.00 100 1019.1